DW7013 Weather Reports


time (UTC)temp
C
wind
direction
speed
KPH
gust
KPH
rain 1hr
cm
rain 24hr
cm
rain mn
cm
humidity
%
barometer
mb
20200226013209 0 332 14.5 64.4 0.05 1.47 0.13 91 1001.0
20200226012716 0 346 22.5 64.4 0.05 1.47 0.13 91 1001.1
20200226012214 0 350 22.5 64.4 0.05 1.47 0.13 91 1001.1
20200226011710 1 314 19.3 64.4 0.05 1.47 0.13 91 1000.7
20200226011219 1 274 19.3 30.6 0.05 1.47 0.13 91 1001.3
20200226010716 1 39 17.7 30.6 0.05 1.47 0.13 91 999.9
20200226010212 1 63 16.1 27.4 0.05 1.47 0.13 91 1000.0
20200226005710 1 125 12.9 27.4 0.05 1.45 0.10 91 1000.5
20200226005214 1 81 14.5 43.5 0.08 1.45 0.10 91 1000.7
20200226004719 1 69 14.5 43.5 0.08 1.45 0.10 90 1000.7
20200226004221 1 109 16.1 33.8 0.08 1.45 0.10 90 1000.1
20200226003707 1 132 16.1 33.8 0.08 1.45 0.08 90 1000.1
20200226003211 1 90 12.9 27.4 0.08 1.45 0.08 90 999.9
20200226002709 1 140 9.7 27.4 0.08 1.45 0.08 89 1000.2
20200226002218 1 117 6.4 27.4 0.08 1.45 0.08 89 1000.2
20200226001716 1 150 11.3 27.4 0.08 1.45 0.08 89 1000.2
20200226001221 1 175 14.5 30.6 0.05 1.42 0.08 88 999.9
20200226000714 1 135 14.5 30.6 0.05 1.42 0.05 88 1000.0
20200226000207 2 106 14.5 29.0 0.05 1.42 0.05 87 1000.3
20200225235710 2 67 11.3 29.0 0.05 1.40 0.05 87 1000.3
20200225235220 2 88 9.7 54.7 0.03 1.37 0.05 86 1000.2
20200225234713 2 100 12.9 54.7 0.03 1.37 0.03 86 1000.0
20200225234207 2 108 19.3 40.2 0.00 1.37 0.03 86 1000.6
20200225233714 2 28 16.1 40.2 0.00 1.37 0.00 86 1000.5
20200225233213 3 5 12.9 30.6 0.00 1.37 0.00 85 1000.0
20200225232709 3 156 8.0 30.6 0.00 1.37 0.00 84 999.9
20200225232207 3 355 6.4 30.6 0.00 1.37 0.00 82 1000.0
20200225231710 3 105 8.0 30.6 0.00 1.37 0.00 82 1000.2
20200225231221 3 117 9.7 30.6 0.00 1.37 0.00 82 1000.3
20200225230708 3 108 9.7 30.6 0.00 1.37 0.00 82 1000.5
20200225230217 3 21 8.0 30.6 0.00 1.37 1.37 81 1000.2
20200225225719 3 28 11.3 43.5 0.00 1.37 1.37 81 1000.5
20200225225208 3 5 12.9 43.5 0.00 1.37 1.37 81 1000.5
20200225224717 3 96 11.3 22.5 0.00 1.37 1.37 81 1000.6
20200225224219 3 297 8.0 22.5 0.00 1.37 1.37 82 1000.8
20200225223717 3 71 6.4 27.4 0.00 1.37 1.37 82 1000.8
20200225223210 3 80 4.8 27.4 0.00 1.37 1.37 82 1000.7
20200225222717 3 101 8.0 35.4 0.00 1.37 1.37 82 1000.9
20200225222209 3 63 8.0 35.4 0.00 1.37 1.37 81 1001.0
20200225221719 3 321 9.7 35.4 0.03 1.37 1.37 81 1000.9
20200225221208 3 113 11.3 35.4 0.03 1.37 1.37 81 1000.8
20200225220713 3 46 9.7 33.8 0.03 1.37 1.37 82 1001.3
20200225220215 3 64 9.7 33.8 0.03 1.37 1.37 82 1001.1
20200225215709 3 13 12.9 53.1 0.03 1.37 1.37 82 1001.3
20200225215212 3 331 12.9 53.1 0.03 1.37 1.37 82 1001.1
20200225214719 3 337 14.5 53.1 0.03 1.37 1.37 82 1001.8
20200225214209 3 82 14.5 53.1 0.03 1.37 1.37 82 1001.3
20200225213714 3 178 12.9 35.4 0.03 1.37 1.37 83 1001.5
20200225213222 3 112 12.9 35.4 0.03 1.37 1.37 84 1001.3
20200225212715 3 144 12.9 30.6 0.03 1.37 1.37 85 1001.0
20200225212212 3 137 12.9 30.6 0.03 1.37 1.37 85 1001.4
20200225211709 3 115 12.9 41.8 0.00 1.35 1.37 85 1001.2
20200225211214 3 90 9.7 41.8 0.00 1.35 1.35 84 1001.5
20200225210723 3 121 11.3 27.4 0.00 1.35 1.35 84 1001.4
20200225210215 3 126 12.9 27.4 0.00 1.35 1.35 84 1001.5
20200225205710 3 32 9.7 16.1 0.00 1.35 1.35 84 1001.8
20200225205209 3 80 6.4 16.1 0.00 1.35 1.35 83 1002.0
20200225204719 3 117 4.8 24.1 0.00 1.35 1.35 83 1002.0
20200225204216 3 105 4.8 24.1 0.00 1.35 1.35 83 1002.0
20200225203719 3 63 6.4 16.1 0.00 1.35 1.35 83 1002.0
20200225203209 3 129 9.7 16.1 0.00 1.35 1.35 83 1002.1
20200225202715 3 173 6.4 37.0 0.00 1.35 1.35 84 1002.1
20200225202217 3 103 4.8 37.0 0.00 1.35 1.35 83 1002.2
20200225201710 3 86 6.4 37.0 0.00 1.35 1.35 83 1002.1
20200225201215 3 326 11.3 37.0 0.00 1.35 1.35 83 1002.2
20200225200709 3 346 11.3 40.2 0.00 1.35 1.35 83 1002.4
20200225200212 3 355 9.7 40.2 0.00 1.35 1.35 83 1002.3
20200225195717 3 198 12.9 25.7 0.00 1.35 1.35 84 1002.4
20200225195216 3 43 11.3 25.7 0.00 1.35 1.35 83 1002.5
20200225194719 3 5 11.3 24.1 0.03 1.35 1.35 84 1002.5
20200225194220 3 328 11.3 24.1 0.03 1.35 1.35 83 1002.7
20200225193707 3 38 8.0 38.6 0.03 1.35 1.35 83 1002.7
20200225193216 3 350 6.4 38.6 0.03 1.35 1.35 83 1002.4
20200225192709 3 140 11.3 38.6 0.05 1.35 1.35 84 1002.4
20200225192220 3 17 14.5 38.6 0.05 1.35 1.35 85 1002.6
20200225191712 3 317 12.9 38.6 0.13 1.35 1.35 87 1002.8
20200225191214 3 355 9.7 38.6 0.13 1.35 1.35 87 1002.9
20200225190726 3 341 9.7 37.0 0.18 1.35 1.35 87 1002.9
20200225190213 3 19 12.9 37.0 0.18 1.35 1.35 87 1003.1
20200225185720 3 299 11.3 37.0 0.15 1.32 1.35 87 1003.2
20200225185216 3 44 11.3 37.0 0.15 1.32 1.32 87 1002.9
20200225184712 3 113 8.0 24.1 0.15 1.32 1.32 88 1003.3
20200225184209 3 262 6.4 24.1 0.15 1.32 1.32 88 1003.2
20200225183718 3 75 9.7 35.4 0.15 1.32 1.32 88 1003.2
20200225183217 3 52 9.7 35.4 0.15 1.32 1.32 88 1003.3
20200225182712 3 0 9.7 35.4 0.13 1.27 1.32 88 1003.4
20200225182207 3 348 9.7 35.4 0.13 1.27 1.27 87 1003.7
20200225181714 3 272 4.8 29.0 0.05 1.19 1.27 86 1003.7
20200225181219 3 55 4.8 29.0 0.05 1.19 1.17 86 1003.7
20200225180713 4 5 12.9 33.8 0.00 1.19 1.17 85 1003.5
20200225180216 4 346 12.9 33.8 0.00 1.17 1.17 85 1003.6
20200225175718 4 0 14.5 35.4 0.03 1.17 1.17 84 1003.6
20200225175218 4 12 12.9 35.4 0.03 1.17 1.17 84 1003.6
20200225174711 4 34 11.3 48.3 0.05 1.17 1.17 84 1004.1
20200225174209 4 9 14.5 48.3 0.05 1.17 1.17 84 1004.0
20200225173712 4 257 12.9 48.3 0.08 1.17 1.17 85 1003.8
20200225173216 4 19 14.5 48.3 0.08 1.17 1.17 86 1003.9
20200225172717 4 330 17.7 35.4 0.08 1.17 1.17 87 1004.2
20200225172212 4 65 16.1 35.4 0.10 1.17 1.17 88 1003.8
20200225171707 4 339 16.1 35.4 0.10 1.17 1.17 89 1004.0
20200225171220 5 16 12.9 25.7 0.10 1.17 1.17 89 1004.1
20200225170712 5 355 8.0 25.7 0.10 1.17 1.17 90 1003.8
20200225170220 5 125 9.7 32.2 0.10 1.17 1.17 90 1003.4
20200225165711 5 96 12.9 32.2 0.10 1.14 1.14 90 1003.5
20200225165210 5 72 12.9 35.4 0.08 1.12 1.14 90 1003.6
20200225164716 5 338 14.5 35.4 0.08 1.12 1.12 91 1003.5
20200225164221 5 42 11.3 20.9 0.05 1.09 1.12 92 1003.6
20200225163719 5 47 8.0 20.9 0.05 1.09 1.09 92 1003.6
20200225163210 5 129 8.0 29.0 0.05 1.09 1.09 92 1003.2
20200225162720 5 135 6.4 29.0 0.05 1.09 1.09 92 1003.4
20200225162219 5 134 4.8 22.5 0.05 1.07 1.09 92 1003.5
20200225161708 5 95 4.8 22.5 0.05 1.07 1.07 92 1003.4
20200225161211 5 122 6.4 22.5 0.05 1.07 1.07 92 1003.3
20200225160716 5 109 6.4 22.5 0.05 1.07 1.07 92 1003.5
20200225160212 5 129 8.0 22.5 0.05 1.07 1.07 92 1003.6
20200225155709 5 140 8.0 22.5 0.05 1.04 1.04 92 1003.7
20200225155221 5 98 8.0 20.9 0.08 1.04 1.04 93 1003.6
20200225154710 5 109 8.0 20.9 0.08 1.04 1.04 93 1003.7
20200225154211 5 123 4.8 22.5 0.10 1.04 1.04 93 1003.9
20200225153721 5 143 3.2 22.5 0.10 1.04 1.04 93 1003.9
20200225153220 5 140 8.0 17.7 0.13 1.04 1.04 93 1004.1
20200225152718 5 74 9.7 17.7 0.13 1.04 1.04 93 1004.1
20200225152221 5 94 6.4 17.7 0.13 1.02 1.04 93 1004.2
20200225151718 5 135 3.2 17.7 0.13 1.02 1.02 94 1004.5
20200225151207 5 104 4.8 20.9 0.15 0.99 1.02 94 1004.4
20200225150717 5 355 3.2 20.9 0.15 0.99 0.99 94 1004.6
20200225150219 5 33 4.8 20.9 0.15 0.99 0.99 94 1004.7
20200225145709 5 102 6.4 20.9 0.15 0.99 0.99 94 1004.5
20200225145207 5 117 8.0 20.9 0.15 0.97 0.99 94 1004.8
20200225144715 5 131 8.0 20.9 0.15 0.97 0.97 94 1004.6
20200225144215 5 96 6.4 14.5 0.15 0.94 0.97 94 1004.8
20200225143719 5 105 3.2 14.5 0.15 0.94 0.94 94 1004.8
20200225143217 5 63 3.2 16.1 0.15 0.91 0.94 94 1005.0
20200225142721 5 122 4.8 16.1 0.15 0.91 0.91 94 1004.9
20200225142213 5 144 3.2 14.5 0.15 0.89 0.91 94 1005.0
20200225141713 5 121 3.2 14.5 0.15 0.89 0.89 94 1005.0
20200225141218 5 153 4.8 22.5 0.15 0.89 0.89 94 1004.9
20200225140721 5 211 4.8 22.5 0.15 0.84 0.84 94 1005.1
20200225140212 5 126 4.8 22.5 0.15 0.81 0.84 94 1005.1
20200225135713 5 144 6.4 22.5 0.15 0.81 0.81 94 1005.1
20200225135220 4 125 8.0 22.5 0.15 0.79 0.81 94 1005.1
20200225134708 4 96 9.7 22.5 0.15 0.79 0.79 94 1005.1
20200225134213 4 0 9.7 22.5 0.18 0.79 0.79 94 1005.2
20200225133713 4 183 9.7 22.5 0.18 0.79 0.79 94 1005.2
20200225133221 4 88 6.4 12.9 0.23 0.79 0.79 94 1005.1
20200225132710 4 132 4.8 12.9 0.23 0.79 0.79 93 1005.4
20200225132220 4 113 6.4 14.5 0.23 0.76 0.79 93 1005.4
20200225131714 4 138 6.4 14.5 0.23 0.76 0.74 93 1005.4
20200225131207 4 88 6.4 22.5 0.20 0.71 0.74 93 1005.6
20200225130710 4 140 6.4 22.5 0.20 0.71 0.71 93 1005.6
20200225130216 4 173 6.4 22.5 0.20 0.71 0.71 93 1005.6
20200225125715 4 136 8.0 22.5 0.20 0.66 0.66 93 1005.8
20200225125218 4 146 8.0 19.3 0.18 0.61 0.66 93 1005.8
20200225124709 4 112 6.4 19.3 0.18 0.61 0.61 93 1005.8
20200225124214 4 128 8.0 17.7 0.15 0.58 0.61 93 1006.0
20200225123720 4 124 6.4 17.7 0.15 0.58 0.58 93 1006.0
20200225123211 4 164 6.4 16.1 0.15 0.56 0.58 93 1006.2
20200225122715 4 113 8.0 16.1 0.15 0.56 0.56 93 1006.2
20200225122212 4 118 8.0 16.1 0.15 0.53 0.56 93 1006.3
20200225121717 4 100 8.0 16.1 0.15 0.53 0.51 92 1006.4
20200225121219 4 122 6.4 24.1 0.15 0.51 0.51 92 1006.4
20200225120708 4 131 6.4 24.1 0.15 0.51 0.51 92 1006.5
20200225120219 4 113 8.0 24.1 0.15 0.51 0.51 92 1006.8
20200225115730 4 142 8.0 20.9 0.10 0.46 0.46 92 1006.7
20200225115212 4 145 8.0 20.9 0.10 0.43 0.43 92 1006.8
20200225114712 4 109 6.4 19.3 0.13 0.43 0.43 92 1006.7
20200225114219 4 126 4.8 19.3 0.13 0.43 0.43 92 1007.1
20200225113717 4 131 6.4 19.3 0.10 0.41 0.43 92 1007.1
20200225113218 4 136 6.4 19.3 0.10 0.41 0.41 92 1007.2
20200225112707 4 98 8.0 16.1 0.10 0.41 0.41 92 1007.2
20200225112208 4 134 4.8 16.1 0.10 0.38 0.41 92 1007.3
20200225111707 4 170 4.8 16.1 0.10 0.38 0.36 92 1007.3
20200225111215 4 100 4.8 14.5 0.10 0.36 0.36 92 1007.3
20200225110712 4 121 4.8 14.5 0.10 0.36 0.36 92 1007.4
20200225110209 4 113 3.2 22.5 0.10 0.36 0.36 92 1007.5
20200225105715 4 125 4.8 22.5 0.08 0.33 0.33 92 1007.6
20200225105219 4 146 8.0 22.5 0.10 0.33 0.33 92 1007.6
20200225104716 4 105 9.7 22.5 0.10 0.33 0.33 92 1007.5
20200225104220 4 126 11.3 17.7 0.10 0.33 0.33 92 1007.6
20200225103707 4 111 8.0 17.7 0.10 0.33 0.33 92 1007.6
20200225103218 4 136 6.4 17.7 0.08 0.30 0.33 92 1007.7
20200225102715 4 140 8.0 17.7 0.08 0.30 0.30 92 1007.6
20200225102220 4 117 6.4 20.9 0.10 0.28 0.30 92 1007.6
20200225101715 4 88 4.8 20.9 0.10 0.28 0.28 92 1007.6
20200225101207 4 99 4.8 25.7 0.13 0.25 0.28 92 1007.7
20200225100714 4 131 6.4 25.7 0.13 0.25 0.25 92 1007.7
20200225100221 4 167 9.7 24.1 0.13 0.25 0.25 92 1007.7
20200225095708 4 161 11.3 24.1 0.13 0.23 0.23 92 1007.8
20200225095211 4 145 9.7 20.9 0.15 0.23 0.23 92 1007.7
20200225094721 4 115 8.0 20.9 0.15 0.23 0.23 92 1007.7
20200225094210 4 169 9.7 20.9 0.18 0.23 0.23 92 1008.0
20200225093714 4 111 9.7 20.9 0.18 0.23 0.23 92 1007.8
20200225093220 4 109 8.0 17.7 0.18 0.20 0.23 92 1007.9
20200225092721 4 78 8.0 17.7 0.18 0.20 0.20 92 1008.1
20200225092217 4 138 8.0 17.7 0.15 0.15 0.20 92 1008.0
20200225091707 4 111 8.0 17.7 0.15 0.15 0.15 92 1008.2
20200225091209 4 141 8.0 20.9 0.13 0.13 0.15 92 1008.2
20200225090712 4 128 8.0 20.9 0.13 0.13 0.13 91 1008.2
20200225090212 4 146 8.0 20.9 0.10 0.10 0.13 91 1008.1
20200225085710 4 132 9.7 20.9 0.10 0.10 0.10 91 1008.1
20200225085210 4 136 8.0 16.1 0.05 0.08 0.10 91 1008.2
20200225084716 4 116 6.4 16.1 0.05 0.08 0.05 90 1008.1
20200225084217 4 131 8.0 17.7 0.05 0.05 0.05 90 1008.5
20200225083713 4 125 8.0 17.7 0.05 0.05 0.05 89 1008.5
20200225083213 4 125 8.0 16.1 0.05 0.03 0.05 89 1008.4
20200225082711 4 153 9.7 16.1 0.05 0.03 0.03 88 1008.6
20200225082218 4 132 8.0 17.7 0.05 0.03 0.03 88 1008.6
20200225081720 4 147 8.0 17.7 0.03 0.03 0.03 88 1008.7
20200225081214 4 143 9.7 17.7 0.03 0.03 0.03 88 1008.7
20200225080719 4 155 6.4 20.9 0.03 0.03 0.03 87 1008.7
20200225080216 4 149 4.8 20.9 0.03 0.05 0.03 87 1008.7
20200225075709 4 120 8.0 20.9 0.03 0.05 0.03 87 1008.6
20200225075217 4 202 8.0 24.1 0.03 0.05 0.03 86 1008.6
20200225074716 4 105 9.7 24.1 0.00 0.05 0.00 85 1008.7
20200225074216 4 138 11.3 24.1 0.00 0.05 0.00 85 1008.6
20200225073710 4 128 9.7 27.4 0.00 0.05 0.00 84 1008.7
20200225073221 4 146 11.3 27.4 0.00 0.08 0.00 83 1008.7
20200225072712 4 114 12.9 27.4 0.00 0.08 0.00 83 1008.8
20200225072215 4 117 12.9 27.4 0.00 0.08 0.00 82 1008.9
20200225071722 4 140 11.3 22.5 0.00 0.13 0.00 82 1008.7
20200225071210 4 114 11.3 22.5 0.00 0.13 0.00 81 1008.9
20200225070709 4 120 9.7 24.1 0.00 0.13 0.00 80 1008.7
20200225070220 4 121 9.7 24.1 0.00 0.13 0.00 79 1008.8
20200225065719 5 158 9.7 24.1 0.00 0.13 0.00 79 1009.0
20200225065211 5 110 9.7 20.9 0.00 0.13 0.00 78 1008.9
20200225064722 5 107 8.0 20.9 0.00 0.15 0.00 77 1009.0
20200225064212 5 140 6.4 20.9 0.00 0.15 0.00 75 1009.1
20200225063717 5 126 8.0 25.7 0.00 0.15 0.00 74 1009.1
20200225063218 5 152 9.7 25.7 0.00 0.15 0.00 74 1009.1
20200225062718 5 117 11.3 25.7 0.00 0.15 0.00 73 1009.0
20200225062216 5 115 11.3 25.7 0.00 0.15 0.00 73 1009.0
20200225061710 5 128 9.7 25.7 0.00 0.15 0.00 73 1008.9
20200225061213 5 144 11.3 25.7 0.00 0.15 0.00 72 1008.9
20200225060719 5 119 11.3 24.1 0.00 0.15 0.00 72 1008.9
20200225060214 5 107 11.3 24.1 0.00 0.15 0.00 71 1008.9
20200225055716 5 149 11.3 24.1 0.00 0.15 0.00 71 1009.1
20200225055216 5 133 9.7 22.5 0.00 0.15 0.00 71 1009.3
20200225054716 5 121 9.7 22.5 0.00 0.15 0.00 70 1009.2
20200225054214 5 157 11.3 22.5 0.00 0.15 0.00 70 1009.2
20200225053708 5 119 11.3 22.5 0.00 0.15 0.00 70 1009.3
20200225053211 5 162 11.3 20.9 0.00 0.15 0.00 70 1009.2
20200225052722 6 124 11.3 20.9 0.00 0.15 0.00 69 1009.2
20200225052210 6 102 11.3 20.9 0.00 0.15 0.00 69 1009.3
20200225051708 6 115 11.3 20.9 0.00 0.15 0.00 68 1009.3
20200225051217 6 151 8.0 20.9 0.00 0.15 0.00 68 1009.3
20200225050717 6 161 8.0 20.9 0.00 0.15 0.00 68 1009.3
20200225050212 6 121 9.7 20.9 0.00 0.15 0.00 67 1009.3
20200225045717 6 128 11.3 29.0 0.00 0.15 0.00 67 1009.5
20200225045213 6 132 11.3 29.0 0.00 0.15 0.00 65 1009.5
20200225044708 6 130 11.3 29.0 0.00 0.15 0.00 64 1009.7
20200225044211 6 143 12.9 25.7 0.00 0.15 0.00 65 1009.3
20200225043720 6 117 12.9 25.7 0.00 0.15 0.00 65 1009.4
20200225043213 6 138 11.3 25.7 0.00 0.15 0.00 64 1009.7
20200225042713 6 156 11.3 22.5 0.00 0.15 0.00 63 1009.8
20200225042214 6 149 12.9 22.5 0.00 0.15 0.00 61 1009.5
20200225041708 6 150 11.3 22.5 0.00 0.15 0.00 63 1009.7
20200225041221 6 148 9.7 22.5 0.00 0.15 0.00 63 1009.8
20200225040710 6 165 9.7 22.5 0.00 0.15 0.00 62 1009.9
20200225040221 6 158 9.7 22.5 0.00 0.15 0.00 61 1009.7
20200225035715 6 116 8.0 20.9 0.00 0.15 0.00 60 1009.7
20200225035210 6 99 8.0 20.9 0.00 0.15 0.00 58 1009.9
20200225034711 6 143 8.0 20.9 0.00 0.15 0.00 58 1009.9
20200225034212 7 121 6.4 20.9 0.00 0.15 0.00 59 1009.9
20200225033709 7 121 8.0 20.9 0.00 0.15 0.00 58 1010.0
20200225033215 7 165 9.7 16.1 0.00 0.15 0.00 58 1009.8
20200225032709 7 117 6.4 16.1 0.00 0.15 0.00 58 1009.9
20200225032207 7 121 4.8 17.7 0.00 0.15 0.00 56 1010.1
20200225031714 7 134 4.8 17.7 0.00 0.15 0.00 56 1010.2
20200225031215 7 86 6.4 22.5 0.00 0.15 0.00 55 1010.1
20200225030716 7 117 4.8 22.5 0.00 0.15 0.00 55 1010.2
20200225030216 7 156 4.8 22.5 0.00 0.15 0.00 54 1010.2
20200225025720 7 103 9.7 22.5 0.00 0.15 0.00 53 1010.2
20200225025215 7 140 11.3 27.4 0.00 0.15 0.00 53 1010.2
20200225024708 7 160 11.3 27.4 0.00 0.15 0.00 54 1010.4
20200225024212 7 108 8.0 27.4 0.00 0.15 0.00 55 1010.4
20200225023716 7 73 8.0 27.4 0.00 0.15 0.00 56 1010.5
20200225023214 7 147 9.7 17.7 0.00 0.15 0.00 57 1010.4
20200225022718 7 110 8.0 17.7 0.00 0.15 0.00 58 1010.5
20200225022215 7 177 4.8 22.5 0.00 0.15 0.00 60 1010.6
20200225021714 7 148 4.8 22.5 0.00 0.15 0.00 61 1010.5
20200225021216 7 137 6.4 22.5 0.00 0.15 0.00 60 1010.6
20200225020715 7 163 6.4 22.5 0.00 0.15 0.00 62 1010.6
20200225020210 7 171 8.0 22.5 0.00 0.15 0.00 62 1010.7
20200225015707 8 157 9.7 22.5 0.00 0.15 0.00 61 1010.8
20200225015208 8 179 9.7 19.3 0.00 0.15 0.00 62 1010.7
20200225014711 8 160 8.0 19.3 0.00 0.15 0.00 62 1010.8
20200225014212 8 132 8.0 22.5 0.00 0.15 0.00 61 1010.9
20200225013715 8 115 6.4 22.5 0.00 0.15 0.00 62 1011.3